M I D A S
Marine Information and Data Acquisition System
Tripno 705 of the Zeeleeuw from 2004-05-03 06:37:17 to 2004-05-03 13:20:30
Back to CruiseResearch ActivitiesStationsMapUnderway DataData graphs

EquipmentUnitsComments
TimeDGPSUTC
LatitudeDGPSDM.mWGS84
LongitudeDGPSDM.mWGS84
SpeedMeteo Stationm/sRelative wind speed
DirectionMeteo StationdegRelative wind direction
TemperatureMeteo Stationdeg CelciusAir temperature
PressureMeteo StationPaAtmospheric pressure
HumidityMeteo Station%Relative humidity
Missing or incorrect values are displayed as -999
Metereological data collected by the RV Zeeleeuw from 2004-05-03 06:37:17 to 2004-05-03 13:20:30
                                                                                    Next 1000 lines
Time Latitude Longitude Speed Direction Temperature Pressure Humidity
2004-05-03 06:37:25 51°13.598 2°56.097 2.8 139 10.5 100370 69
2004-05-03 06:37:30 51°13.597 2°56.097 3.9 128 10.4 100360 68
2004-05-03 06:37:34 51°13.597 2°56.097 4.6 137 10.4 100360 68
2004-05-03 06:37:40 51°13.597 2°56.097 3.8 133 10.4 100360 68
2004-05-03 06:37:45 51°13.597 2°56.097 3.8 126 10.4 100360 68
2004-05-03 06:37:50 51°13.597 2°56.097 3.1 126 10.5 100360 69
2004-05-03 06:37:55 51°13.597 2°56.097 3 131 10.5 100360 69
2004-05-03 06:38:00 51°13.597 2°56.097 2.9 125 10.5 100370 69
2004-05-03 06:38:05 51°13.597 2°56.097 4.2 154 10.5 100370 69
2004-05-03 06:38:10 51°13.597 2°56.095 3.7 149 10.5 100370 69
2004-05-03 06:38:14 51°13.598 2°56.093 3.4 141 10.5 100370 69
2004-05-03 06:38:20 51°13.599 2°56.088 3.4 143 10.5 100360 69
2004-05-03 06:38:25 51°13.6 2°56.084 4.4 157 10.5 100360 69
2004-05-03 06:38:30 51°13.602 2°56.079 4.1 135 10.5 100370 69
2004-05-03 06:38:36 51°13.604 2°56.072 3.1 153 10.5 100370 69
2004-05-03 06:38:41 51°13.606 2°56.066 3.3 150 10.5 100370 69
2004-05-03 06:38:46 51°13.609 2°56.059 3 226 10.5 100370 69
2004-05-03 06:38:50 51°13.611 2°56.053 3.6 138 10.5 100370 68
2004-05-03 06:38:56 51°13.614 2°56.043 3.5 170 10.5 100370 68
2004-05-03 06:39:01 51°13.616 2°56.035 4.3 159 10.5 100370 68
2004-05-03 06:39:06 51°13.619 2°56.026 4 150 10.5 100370 68
2004-05-03 06:39:10 51°13.621 2°56.019 3 149 10.5 100370 68
2004-05-03 06:39:16 51°13.624 2°56.008 4.4 180 10.5 100370 68
2004-05-03 06:39:21 51°13.627 2°55.999 4.6 175 10.5 100360 68
2004-05-03 06:39:26 51°13.63 2°55.989 3.8 174 10.5 100360 68
2004-05-03 06:39:31 51°13.633 2°55.979 4 166 10.5 100360 69
2004-05-03 06:39:36 51°13.636 2°55.969 3.8 158 10.5 100360 69
2004-05-03 06:39:41 51°13.64 2°55.958 4.1 177 10.5 100360 69
2004-05-03 06:39:46 51°13.643 2°55.948 5 175 10.5 100360 69
2004-05-03 06:39:50 51°13.645 2°55.94 5.2 161 10.5 100360 69
2004-05-03 06:39:56 51°13.649 2°55.927 4.1 165 10.5 100360 69
2004-05-03 06:40:01 51°13.652 2°55.917 4.3 170 10.5 100360 69
2004-05-03 06:40:06 51°13.655 2°55.906 3.6 169 10.5 100360 69
2004-05-03 06:40:10 51°13.657 2°55.897 3.9 170 10.6 100360 69
2004-05-03 06:40:16 51°13.661 2°55.884 5.9 158 10.6 100360 69
2004-05-03 06:40:21 51°13.663 2°55.874 5.1 167 10.6 100370 69
2004-05-03 06:40:26 51°13.666 2°55.863 5.7 167 10.6 100370 69
2004-05-03 06:40:30 51°13.667 2°55.854 6.9 158 10.6 100360 69
2004-05-03 06:40:36 51°13.67 2°55.84 6.6 166 10.6 100360 69
2004-05-03 06:40:41 51°13.671 2°55.829 5.5 177 10.6 100370 69
2004-05-03 06:40:46 51°13.673 2°55.817 3.4 176 10.6 100370 69
2004-05-03 06:40:50 51°13.674 2°55.808 4.6 175 10.6 100360 68
2004-05-03 06:40:56 51°13.674 2°55.794 5.7 156 10.6 100360 68
2004-05-03 06:41:01 51°13.675 2°55.784 4.7 172 10.5 100360 68
2004-05-03 06:41:06 51°13.675 2°55.774 5.1 164 10.5 100360 68
2004-05-03 06:41:10 51°13.675 2°55.767 4.3 163 10.6 100360 69
2004-05-03 06:41:14 51°13.675 2°55.761 4.5 169 10.6 100360 69
2004-05-03 06:41:20 51°13.675 2°55.754 3.9 179 10.5 100360 69
2004-05-03 06:41:25 51°13.675 2°55.75 4.5 178 10.5 100360 69
2004-05-03 06:41:30 51°13.675 2°55.746 3.3 157 10.5 100360 69
2004-05-03 06:41:34 51°13.674 2°55.744 3.1 168 10.5 100360 69
2004-05-03 06:41:40 51°13.674 2°55.742 2.3 175 10.5 100360 69
2004-05-03 06:41:45 51°13.675 2°55.742 1.8 200 10.5 100360 69
2004-05-03 06:41:50 51°13.676 2°55.743 1.5 222 10.5 100360 69
2004-05-03 06:41:55 51°13.678 2°55.745 1.1 250 10.5 100360 69
2004-05-03 06:42:00 51°13.681 2°55.748 1.1 261 10.5 100360 69
2004-05-03 06:42:05 51°13.685 2°55.751 1.6 274 10.5 100360 69
2004-05-03 06:42:10 51°13.69 2°55.752 1.5 301 10.5 100360 69
2004-05-03 06:42:16 51°13.697 2°55.753 1.7 310 10.5 100360 69
2004-05-03 06:42:20 51°13.702 2°55.752 1.8 329 10.5 100360 69
2004-05-03 06:42:25 51°13.709 2°55.75 2 337 10.5 100360 69
2004-05-03 06:42:30 51°13.716 2°55.746 2.6 336 10.6 100360 69
2004-05-03 06:42:35 51°13.723 2°55.74 1.6 338 10.6 100360 69
2004-05-03 06:42:40 51°13.729 2°55.735 1.9 336 10.6 100360 69
2004-05-03 06:42:45 51°13.736 2°55.729 2.2 338 10.6 100360 69
2004-05-03 06:42:50 51°13.742 2°55.724 3 320 10.6 100360 69
2004-05-03 06:42:54 51°13.747 2°55.719 3.2 327 10.6 100360 69
2004-05-03 06:43:00 51°13.755 2°55.711 3.8 301 10.6 100360 69
2004-05-03 06:43:05 51°13.761 2°55.704 3.2 308 10.6 100360 69
2004-05-03 06:43:10 51°13.768 2°55.697 3 323 10.6 100360 69
2004-05-03 06:43:14 51°13.774 2°55.691 2.5 11 10.6 100360 69
2004-05-03 06:43:20 51°13.782 2°55.682 3.3 345 10.6 100360 69
2004-05-03 06:43:25 51°13.79 2°55.674 4.2 354 10.6 100360 69
2004-05-03 06:43:30 51°13.797 2°55.667 4 338 10.6 100360 69
2004-05-03 06:43:34 51°13.803 2°55.661 4.1 311 10.6 100360 69
2004-05-03 06:43:40 51°13.813 2°55.653 4.5 326 10.6 100370 68
2004-05-03 06:43:45 51°13.821 2°55.645 4 353 10.6 100370 68
2004-05-03 06:43:50 51°13.829 2°55.638 2.4 331 10.6 100370 68
2004-05-03 06:43:55 51°13.838 2°55.631 2 333 10.6 100370 68
2004-05-03 06:44:00 51°13.846 2°55.623 2.3 348 10.6 100360 68
2004-05-03 06:44:05 51°13.855 2°55.616 1.3 49 10.6 100360 68
2004-05-03 06:44:10 51°13.863 2°55.609 3.8 6 10.7 100360 68
2004-05-03 06:44:14 51°13.87 2°55.604 3.9 330 10.7 100360 68
2004-05-03 06:44:20 51°13.881 2°55.596 4.2 316 10.7 100360 68
2004-05-03 06:44:25 51°13.89 2°55.589 3.4 358 10.7 100360 68
2004-05-03 06:44:30 51°13.898 2°55.583 4.3 38 10.7 100360 68
2004-05-03 06:44:34 51°13.905 2°55.577 5 340 10.7 100360 68
2004-05-03 06:44:40 51°13.916 2°55.569 3.8 360 10.7 100360 68
2004-05-03 06:44:45 51°13.926 2°55.563 3.8 356 10.7 100360 68
2004-05-03 06:44:50 51°13.935 2°55.556 3.4 348 10.7 100360 68
2004-05-03 06:44:54 51°13.943 2°55.551 4.1 355 10.7 100360 68
2004-05-03 06:45:00 51°13.955 2°55.542 3.6 336 10.7 100360 68
2004-05-03 06:45:05 51°13.965 2°55.535 4.6 319 10.7 100360 68
2004-05-03 06:45:10 51°13.976 2°55.528 4.1 318 10.7 100360 68
2004-05-03 06:45:14 51°13.984 2°55.523 3.6 326 10.7 100360 68
2004-05-03 06:45:20 51°13.997 2°55.515 3.6 227 10.7 100360 68
2004-05-03 06:45:25 51°14.008 2°55.508 2.7 227 10.7 100360 68
2004-05-03 06:45:30 51°14.018 2°55.5 4.1 328 10.7 100360 67
2004-05-03 06:45:34 51°14.027 2°55.495 4.1 357 10.7 100360 67
2004-05-03 06:45:40 51°14.04 2°55.486 3.8 3 10.7 100360 67
2004-05-03 06:45:45 51°14.051 2°55.478 6.5 335 10.7 100360 67
2004-05-03 06:45:50 51°14.062 2°55.47 5.5 315 10.8 100360 67
2004-05-03 06:45:54 51°14.071 2°55.464 5.6 325 10.8 100360 67
2004-05-03 06:46:00 51°14.085 2°55.455 4.8 319 10.7 100360 67
2004-05-03 06:46:05 51°14.096 2°55.446 4.3 323 10.7 100360 67
2004-05-03 06:46:10 51°14.108 2°55.437 5 328 10.8 100360 67
2004-05-03 06:46:14 51°14.117 2°55.43 4.9 342 10.8 100360 67
2004-05-03 06:46:20 51°14.132 2°55.419 4.2 339 10.8 100360 67
2004-05-03 06:46:25 51°14.143 2°55.409 4.2 347 10.8 100360 67
2004-05-03 06:46:30 51°14.155 2°55.399 3.3 352 10.8 100360 67
2004-05-03 06:46:36 51°14.169 2°55.386 4.3 342 10.8 100360 67
2004-05-03 06:46:40 51°14.178 2°55.377 5.7 346 10.8 100360 67
2004-05-03 06:46:45 51°14.19 2°55.365 6 355 10.8 100360 67
2004-05-03 06:46:50 51°14.201 2°55.352 5.4 352 10.8 100360 67
2004-05-03 06:46:54 51°14.209 2°55.342 6 342 10.8 100360 67
2004-05-03 06:47:00 51°14.222 2°55.325 6.3 347 10.9 100350 67
2004-05-03 06:47:05 51°14.233 2°55.311 7.2 317 10.9 100350 67
2004-05-03 06:47:10 51°14.244 2°55.296 6.9 338 10.9 100360 66
2004-05-03 06:47:15 51°14.254 2°55.28 5.9 324 10.9 100360 66
2004-05-03 06:47:20 51°14.264 2°55.264 7 332 10.9 100360 66
2004-05-03 06:47:25 51°14.274 2°55.248 8.3 326 10.9 100360 66
2004-05-03 06:47:30 51°14.284 2°55.231 8.4 325 10.9 100350 66
2004-05-03 06:47:35 51°14.294 2°55.213 8.7 330 10.9 100350 66
2004-05-03 06:47:40 51°14.304 2°55.194 9.4 340 10.9 100350 66
2004-05-03 06:47:44 51°14.312 2°55.179 8 342 10.9 100350 66
2004-05-03 06:47:50 51°14.324 2°55.154 8.4 331 10.9 100350 67
2004-05-03 06:47:55 51°14.334 2°55.133 7.3 337 10.9 100350 67
2004-05-03 06:48:00 51°14.345 2°55.112 7.7 345 10.9 100350 66
2004-05-03 06:48:05 51°14.355 2°55.091 7.3 336 10.9 100350 66
2004-05-03 06:48:10 51°14.367 2°55.07 7.6 330 10.9 100350 67
2004-05-03 06:48:15 51°14.379 2°55.049 8.7 332 10.9 100350 67
2004-05-03 06:48:20 51°14.39 2°55.026 9.9 332 10.9 100350 68
2004-05-03 06:48:25 51°14.4 2°55.001 9.4 328 10.9 100350 68
2004-05-03 06:48:30 51°14.409 2°54.976 9.7 333 10.9 100350 68
2004-05-03 06:48:34 51°14.417 2°54.956 10 331 10.9 100350 68
2004-05-03 06:48:40 51°14.428 2°54.924 10.4 329 10.9 100350 69
2004-05-03 06:48:45 51°14.437 2°54.897 11.2 330 10.9 100350 69
2004-05-03 06:48:50 51°14.445 2°54.869 11.3 333 10.9 100330 68
2004-05-03 06:48:55 51°14.45 2°54.84 11 333 10.9 100330 68
2004-05-03 06:49:00 51°14.454 2°54.81 10.6 339 10.9 100340 69
2004-05-03 06:49:05 51°14.456 2°54.779 12 342 10.9 100340 69
2004-05-03 06:49:10 51°14.457 2°54.748 12.9 341 10.9 100340 68
2004-05-03 06:49:14 51°14.457 2°54.723 13 343 10.9 100340 68
2004-05-03 06:49:20 51°14.455 2°54.686 11.9 346 10.9 100330 70
2004-05-03 06:49:25 51°14.453 2°54.654 13 347 10.9 100330 70
2004-05-03 06:49:30 51°14.449 2°54.624 12.6 349 10.9 100340 71
2004-05-03 06:49:34 51°14.445 2°54.599 13 352 10.9 100340 71
2004-05-03 06:49:40 51°14.438 2°54.562 12 357 10.9 100330 70
2004-05-03 06:49:45 51°14.432 2°54.532 12.2 351 10.9 100330 70
2004-05-03 06:49:50 51°14.424 2°54.503 12 356 10.9 100330 70
2004-05-03 06:49:54 51°14.417 2°54.48 12.5 357 10.9 100330 70
2004-05-03 06:50:00 51°14.406 2°54.446 13.3 357 10.9 100330 71
2004-05-03 06:50:05 51°14.397 2°54.418 12.2 359 10.9 100330 71
2004-05-03 06:50:10 51°14.387 2°54.39 12.2 1 10.8 100340 71
2004-05-03 06:50:14 51°14.379 2°54.368 12 358 10.8 100340 71
2004-05-03 06:50:20 51°14.367 2°54.336 13.1 357 10.8 100320 70
2004-05-03 06:50:25 51°14.357 2°54.308 12.6 359 10.8 100320 70
2004-05-03 06:50:30 51°14.347 2°54.281 12.1 360 10.8 100330 71
2004-05-03 06:50:35 51°14.337 2°54.254 11.9   10.8 100330 71
2004-05-03 06:50:40 51°14.327 2°54.226 12.8   10.7 100340 71
2004-05-03 06:50:45 51°14.317 2°54.198 13.2 359 10.7 100340 71
2004-05-03 06:50:50 51°14.307 2°54.17 12.5 359 10.7 100330 71
2004-05-03 06:50:55 51°14.298 2°54.142 12.4 358 10.7 100330 71
2004-05-03 06:51:00 51°14.289 2°54.113 12.5 357 10.7 100340 71
2004-05-03 06:51:05 51°14.28 2°54.084 11.9 355 10.7 100340 71
2004-05-03 06:51:10 51°14.271 2°54.055 12.7 354 10.7 100330 72
2004-05-03 06:51:14 51°14.264 2°54.032 12.4 355 10.7 100330 72
2004-05-03 06:51:20 51°14.254 2°53.997 12.3 354 10.7 100340 72
2004-05-03 06:51:25 51°14.246 2°53.968 12.8 354 10.7 100340 72
2004-05-03 06:51:30 51°14.237 2°53.939 12.9 356 10.6 100340 72
2004-05-03 06:51:35 51°14.228 2°53.91 12.3 356 10.6 100340 72
2004-05-03 06:51:40 51°14.219 2°53.881 13 356 10.6 100340 72
2004-05-03 06:51:45 51°14.209 2°53.853 12.2 357 10.6 100340 72
2004-05-03 06:51:50 51°14.199 2°53.825 12.7 358 10.6 100330 72
2004-05-03 06:51:56 51°14.186 2°53.792 12 1 10.6 100330 72
2004-05-03 06:52:00 51°14.178 2°53.771 12.3 359 10.6 100330 72
2004-05-03 06:52:05 51°14.166 2°53.743 13.1 358 10.6 100330 72
2004-05-03 06:52:10 51°14.156 2°53.716 12.5 357 10.6 100330 72
2004-05-03 06:52:15 51°14.144 2°53.689 12.3 357 10.6 100330 72
2004-05-03 06:52:20 51°14.134 2°53.662 12.7 356 10.6 100340 72
2004-05-03 06:52:25 51°14.123 2°53.634 12.2 357 10.6 100340 72
2004-05-03 06:52:30 51°14.113 2°53.606 12.1 353 10.6 100340 72
2004-05-03 06:52:35 51°14.103 2°53.577 12.5 355 10.6 100340 72
2004-05-03 06:52:40 51°14.094 2°53.548 12.9 353 10.5 100330 72
2004-05-03 06:52:45 51°14.085 2°53.519 13.2 352 10.5 100330 72
2004-05-03 06:52:50 51°14.076 2°53.49 11.7 350 10.5 100330 72
2004-05-03 06:52:55 51°14.068 2°53.46 11.5 352 10.5 100330 72
2004-05-03 06:53:00 51°14.059 2°53.431 11.9 355 10.5 100330 73
2004-05-03 06:53:05 51°14.051 2°53.402 12 355 10.5 100330 73
2004-05-03 06:53:10 51°14.041 2°53.373 12.8 353 10.5 100330 73
2004-05-03 06:53:14 51°14.033 2°53.35 11.6 353 10.5 100330 73
2004-05-03 06:53:20 51°14.021 2°53.316 12.1 355 10.5 100330 74
2004-05-03 06:53:25 51°14.011 2°53.288 12.7 355 10.5 100330 74
2004-05-03 06:53:30 51°14 2°53.259 12.4 357 10.5 100330 74
2004-05-03 06:53:34 51°13.992 2°53.237 11.9   10.5 100330 74
2004-05-03 06:53:40 51°13.979 2°53.204 12.3 356 10.5 100330 74
2004-05-03 06:53:45 51°13.968 2°53.175 12.4 357 10.5 100330 74
2004-05-03 06:53:50 51°13.958 2°53.147 12.9 353 10.5 100330 74
2004-05-03 06:53:54 51°13.95 2°53.124 12.2 356 10.5 100330 74
2004-05-03 06:54:00 51°13.938 2°53.089 12.1 355 10.5 100330 74
2004-05-03 06:54:05 51°13.929 2°53.06 12.4 354 10.5 100330 74
2004-05-03 06:54:10 51°13.92 2°53.03 12.6 352 10.5 100330 74
2004-05-03 06:54:14 51°13.913 2°53.006 12.6 353 10.5 100330 74
2004-05-03 06:54:20 51°13.902 2°52.971 11.8 354 10.5 100330 74
2004-05-03 06:54:25 51°13.893 2°52.941 12.1 354 10.5 100330 74
2004-05-03 06:54:30 51°13.883 2°52.912 11.8 356 10.5 100330 74
2004-05-03 06:54:35 51°13.873 2°52.883 12.1 355 10.5 100330 74
2004-05-03 06:54:40 51°13.863 2°52.854 12.4 351 10.5 100320 74
2004-05-03 06:54:45 51°13.852 2°52.826 12.6 356 10.5 100320 74
2004-05-03 06:54:50 51°13.842 2°52.797 11.9 353 10.5 100320 74
2004-05-03 06:54:54 51°13.834 2°52.774 12.5 356 10.5 100320 74
2004-05-03 06:55:00 51°13.822 2°52.74 12.8 352 10.5 100330 74
2004-05-03 06:55:05 51°13.812 2°52.711 12.1 352 10.5 100330 74
2004-05-03 06:55:10 51°13.802 2°52.682 11.8 353 10.5 100330 75
2004-05-03 06:55:14 51°13.794 2°52.658 12 351 10.5 100330 75
2004-05-03 06:55:20 51°13.782 2°52.623 12 352 10.5 100330 75
2004-05-03 06:55:25 51°13.773 2°52.593 12.2 352 10.5 100330 75
2004-05-03 06:55:30 51°13.764 2°52.564 12.4 354 10.5 100330 76
2004-05-03 06:55:34 51°13.756 2°52.541 12.6 351 10.5 100330 76
2004-05-03 06:55:40 51°13.744 2°52.506 12.5 352 10.5 100330 76
2004-05-03 06:55:45 51°13.734 2°52.477 12.5 354 10.5 100330 76
2004-05-03 06:55:50 51°13.724 2°52.448 12.1 352 10.5 100320 75
2004-05-03 06:55:54 51°13.716 2°52.425 11.5 353 10.5 100320 75
2004-05-03 06:56:00 51°13.704 2°52.39 12 354 10.5 100330 75
2004-05-03 06:56:05 51°13.694 2°52.361 11.7 353 10.5 100330 75
2004-05-03 06:56:10 51°13.683 2°52.332 12 352 10.5 100320 75
2004-05-03 06:56:14 51°13.675 2°52.308 11.3 352 10.5 100320 75
2004-05-03 06:56:20 51°13.663 2°52.274 11.7 350 10.6 100320 75
2004-05-03 06:56:25 51°13.654 2°52.244 12.3 350 10.6 100320 75
2004-05-03 06:56:30 51°13.644 2°52.215 12.4 350 10.6 100330 75
2004-05-03 06:56:34 51°13.636 2°52.191 11.6 352 10.6 100330 75
2004-05-03 06:56:40 51°13.624 2°52.156 11.4 354 10.6 100320 76
2004-05-03 06:56:45 51°13.614 2°52.127 11.8 353 10.6 100320 76
2004-05-03 06:56:50 51°13.604 2°52.098 12.2 352 10.6 100320 75
2004-05-03 06:56:56 51°13.592 2°52.063 12.8 355 10.6 100320 75
2004-05-03 06:57:00 51°13.584 2°52.039 12.5 352 10.6 100330 76
2004-05-03 06:57:05 51°13.574 2°52.01 12.6 355 10.6 100330 76
2004-05-03 06:57:10 51°13.564 2°51.981 12 353 10.6 100330 76
2004-05-03 06:57:14 51°13.556 2°51.958 12.4 352 10.6 100330 76
2004-05-03 06:57:20 51°13.544 2°51.923 12.7 354 10.6 100330 76
2004-05-03 06:57:25 51°13.534 2°51.893 12.4 353 10.6 100330 76
2004-05-03 06:57:30 51°13.524 2°51.864 12.5 350 10.7 100330 76
2004-05-03 06:57:34 51°13.516 2°51.84 13 357 10.7 100330 76
2004-05-03 06:57:40 51°13.504 2°51.806 12.5 356 10.7 100320 75
2004-05-03 06:57:45 51°13.494 2°51.776 13 358 10.7 100320 75
2004-05-03 06:57:50 51°13.484 2°51.747 12.7 355 10.7 100320 74
2004-05-03 06:57:55 51°13.474 2°51.718 13.6 355 10.7 100320 74
2004-05-03 06:58:01 51°13.462 2°51.683 13.7 360 10.7 100320 73
2004-05-03 06:58:05 51°13.454 2°51.66 13.8 2 10.7 100320 73
2004-05-03 06:58:10 51°13.444 2°51.631 13.2 1 10.8 100330 73
2004-05-03 06:58:14 51°13.436 2°51.607 12.5 360 10.8 100330 73
2004-05-03 06:58:20 51°13.424 2°51.572 12.5 356 10.8 100330 73
2004-05-03 06:58:25 51°13.415 2°51.543 12.3 358 10.8 100330 73
2004-05-03 06:58:29 51°13.407 2°51.519 12.7 1 10.8 100320 72
2004-05-03 06:58:34 51°13.398 2°51.489 13.5 358 10.8 100320 72
2004-05-03 06:58:40 51°13.386 2°51.453 13.5 357 10.8 100330 73
2004-05-03 06:58:45 51°13.377 2°51.424 13.1   10.8 100330 73
2004-05-03 06:58:50 51°13.367 2°51.394 13.1 357 10.9 100320 74
2004-05-03 06:58:54 51°13.359 2°51.371 13 356 10.9 100320 74
2004-05-03 06:59:00 51°13.347 2°51.336 13.1 355 10.9 100330 73
2004-05-03 06:59:05 51°13.337 2°51.307 13.2 358 10.9 100330 73
2004-05-03 06:59:10 51°13.327 2°51.278 13.1 2 10.9 100330 73
2004-05-03 06:59:14 51°13.319 2°51.255 12.9 359 10.9 100330 73
2004-05-03 06:59:20 51°13.307 2°51.22 14.4 357 10.9 100330 73
2004-05-03 06:59:25 51°13.297 2°51.191 14.2 358 10.9 100330 73
2004-05-03 06:59:30 51°13.287 2°51.162 14 359 10.9 100330 72
2004-05-03 06:59:34 51°13.28 2°51.139 13.5 2 10.9 100330 72
2004-05-03 06:59:40 51°13.268 2°51.104 13.2 1 10.9 100330 73
2004-05-03 06:59:45 51°13.259 2°51.075 13.8 359 10.9 100330 73
2004-05-03 06:59:50 51°13.249 2°51.045 13.2 359 10.9 100330 72
2004-05-03 06:59:54 51°13.241 2°51.022 13.5 1 10.9 100330 72
2004-05-03 07:00:00 51°13.229 2°50.988 13.6 356 10.9 100330 73
2004-05-03 07:00:05 51°13.219 2°50.959 13.6 360 10.9 100330 73
2004-05-03 07:00:10 51°13.209 2°50.93 13.4 360 11 100330 72
2004-05-03 07:00:13 51°13.203 2°50.913 13.6 356 11 100330 72
2004-05-03 07:00:20 51°13.19 2°50.872 13.4 359 11 100340 73
2004-05-03 07:00:25 51°13.18 2°50.843 13.3 358 11 100340 73
2004-05-03 07:00:30 51°13.171 2°50.814 12.9 357 11 100320 72
2004-05-03 07:00:36 51°13.159 2°50.779 13.7 359 11 100320 72
2004-05-03 07:00:40 51°13.151 2°50.756 12.5 359 11 100330 72
2004-05-03 07:00:45 51°13.141 2°50.727 12.4 359 11 100330 72
2004-05-03 07:00:50 51°13.131 2°50.697 13.4 359 11 100330 72
2004-05-03 07:00:55 51°13.122 2°50.668 13.8 359 11 100330 72
2004-05-03 07:01:00 51°13.112 2°50.639 12.8 359 11 100320 73
2004-05-03 07:01:05 51°13.102 2°50.61 13.5 358 11 100320 73
2004-05-03 07:01:10 51°13.092 2°50.581 13.4 357 11 100330 73
2004-05-03 07:01:15 51°13.082 2°50.552 13.2 359 11 100330 73
2004-05-03 07:01:18 51°13.076 2°50.534 13.8 357 11 100330 73
2004-05-03 07:01:25 51°13.063 2°50.493 12.2 358 11 100330 73
2004-05-03 07:01:30 51°13.053 2°50.464 13.7 356 11 100340 73
2004-05-03 07:01:34 51°13.045 2°50.44 13.3 358 11 100340 73
2004-05-03 07:01:41 51°13.031 2°50.399 12.9 359 11 100330 73
2004-05-03 07:01:45 51°13.023 2°50.376 12.9 358 11 100330 73
2004-05-03 07:01:50 51°13.014 2°50.346 13.4 359 11 100330 73
2004-05-03 07:01:54 51°13.006 2°50.323 13.2 355 11 100330 73
2004-05-03 07:02:00 51°12.994 2°50.287 13.6 357 11 100330 74
2004-05-03 07:02:05 51°12.985 2°50.258 12.8 359 11 100330 74
2004-05-03 07:02:10 51°12.975 2°50.229 12.9 356 11 100330 74
2004-05-03 07:02:14 51°12.967 2°50.205 12.6 358 11 100330 74
2004-05-03 07:02:20 51°12.956 2°50.169 13.3 358 11 100330 74
2004-05-03 07:02:25 51°12.946 2°50.14 13.2   11 100330 74
2004-05-03 07:02:30 51°12.936 2°50.111 12.6 358 11 100330 74
2004-05-03 07:02:34 51°12.928 2°50.087 13.6 357 11 100330 74
2004-05-03 07:02:40 51°12.916 2°50.052 12.7 1 11 100330 74
2004-05-03 07:02:45 51°12.907 2°50.022 13.1 3 11 100330 74
2004-05-03 07:02:50 51°12.897 2°49.993 13.2 358 11 100340 74
2004-05-03 07:02:54 51°12.889 2°49.969 13.2 3 11 100340 74
2004-05-03 07:03:00 51°12.878 2°49.934 12.8 359 11 100340 75
2004-05-03 07:03:05 51°12.868 2°49.904 12.5 2 11 100340 75
2004-05-03 07:03:10 51°12.858 2°49.875 12.4 359 11 100340 75
2004-05-03 07:03:15 51°12.849 2°49.845 12.3 358 11 100340 75
2004-05-03 07:03:20 51°12.839 2°49.816 13.1 358 11 100340 75
2004-05-03 07:03:25 51°12.829 2°49.787 12.3 357 11 100340 75
2004-05-03 07:03:30 51°12.819 2°49.757 12.4 360 11 100340 75
2004-05-03 07:03:36 51°12.808 2°49.722 12.4 1 11 100340 75
2004-05-03 07:03:40 51°12.8 2°49.698 12.3 1 10.9 100340 74
2004-05-03 07:03:45 51°12.79 2°49.669 12.9 3 10.9 100340 74
2004-05-03 07:03:50 51°12.78 2°49.639 12.9   11 100340 75
2004-05-03 07:03:54 51°12.772 2°49.615 12.7 2 11 100340 75
2004-05-03 07:04:01 51°12.759 2°49.574 12.9 359 11 100340 75
2004-05-03 07:04:05 51°12.752 2°49.55 13.3 359 11 100340 75
2004-05-03 07:04:10 51°12.742 2°49.521 12.6 4 11 100330 75
2004-05-03 07:04:15 51°12.732 2°49.491 13 2 11 100330 75
2004-05-03 07:04:20 51°12.723 2°49.461 12.5 2 11 100340 75
2004-05-03 07:04:25 51°12.713 2°49.432 12.1 3 11 100340 75
2004-05-03 07:04:30 51°12.703 2°49.402 12.7 5 11 100340 75
2004-05-03 07:04:34 51°12.695 2°49.379 13.2 5 11 100340 75
2004-05-03 07:04:40 51°12.683 2°49.343 13.3 1 11 100340 75
2004-05-03 07:04:45 51°12.674 2°49.314 12.7 2 11 100340 75
2004-05-03 07:04:50 51°12.664 2°49.284 13   11 100340 75
2004-05-03 07:04:55 51°12.654 2°49.255 13.1 1 11 100340 75
2004-05-03 07:05:00 51°12.644 2°49.225 12.8 3 11 100340 74
2004-05-03 07:05:05 51°12.634 2°49.196 13.2 4 11 100340 74
2004-05-03 07:05:10 51°12.625 2°49.166 13.1 2 11.1 100340 74
2004-05-03 07:05:14 51°12.617 2°49.142 12.5 2 11.1 100340 74
2004-05-03 07:05:20 51°12.606 2°49.107 13.8 2 11 100340 73
2004-05-03 07:05:25 51°12.596 2°49.077 13.6 2 11 100340 73
2004-05-03 07:05:30 51°12.586 2°49.047 13.3 3 11.1 100340 72
2004-05-03 07:05:36 51°12.575 2°49.012 14.1 360 11.1 100340 72
2004-05-03 07:05:40 51°12.567 2°48.988 13.3 2 11.1 100340 73
2004-05-03 07:05:45 51°12.557 2°48.959 13.4 4 11.1 100340 73
2004-05-03 07:05:50 51°12.547 2°48.929 13.5 1 11.1 100340 73
2004-05-03 07:05:56 51°12.536 2°48.894 13.5 1 11.1 100340 73
2004-05-03 07:06:00 51°12.528 2°48.87 12.3 1 11.1 100340 72
2004-05-03 07:06:05 51°12.518 2°48.84 13.7 2 11.1 100340 72
2004-05-03 07:06:10 51°12.509 2°48.81 12.8 4 11.1 100320 72
2004-05-03 07:06:16 51°12.497 2°48.775 13.2 3 11.1 100320 72
2004-05-03 07:06:20 51°12.489 2°48.751 12.8 4 11.1 100330 72
2004-05-03 07:06:25 51°12.48 2°48.722 13.3 4 11.1 100330 72
2004-05-03 07:06:30 51°12.47 2°48.692 12.6 3 11.1 100330 72
2004-05-03 07:06:36 51°12.458 2°48.656 13.4 3 11.1 100330 72
2004-05-03 07:06:40 51°12.451 2°48.633 13.1 3 11.2 100330 72
2004-05-03 07:06:45 51°12.441 2°48.603 13.3 3 11.2 100330 72
2004-05-03 07:06:50 51°12.431 2°48.573 13.2 6 11.2 100330 72
2004-05-03 07:06:56 51°12.419 2°48.538 13.1 3 11.2 100330 72
2004-05-03 07:07:00 51°12.411 2°48.515 13.3 5 11.2 100340 72
2004-05-03 07:07:05 51°12.4 2°48.486 12.9 6 11.2 100340 72
2004-05-03 07:07:10 51°12.389 2°48.457 12.8 5 11.2 100330 72
2004-05-03 07:07:15 51°12.379 2°48.428 12.7 4 11.2 100330 72
2004-05-03 07:07:20 51°12.368 2°48.399 13.3 6 11.2 100330 72
2004-05-03 07:07:25 51°12.358 2°48.37 13 7 11.2 100330 72
2004-05-03 07:07:30 51°12.347 2°48.342 12.4 7 11.2 100340 73
2004-05-03 07:07:36 51°12.334 2°48.307 12.5 7 11.2 100340 73
2004-05-03 07:07:40 51°12.326 2°48.284 13.4 6 11.2 100340 73
2004-05-03 07:07:45 51°12.315 2°48.255 13.1 3 11.2 100340 73
2004-05-03 07:07:50 51°12.305 2°48.226 12.9 5 11.2 100340 72
2004-05-03 07:07:54 51°12.296 2°48.203 13.3 6 11.2 100340 72
2004-05-03 07:08:01 51°12.281 2°48.163 12.7 6 11.2 100350 73
2004-05-03 07:08:05 51°12.273 2°48.14 12.4 8 11.2 100350 73
2004-05-03 07:08:10 51°12.262 2°48.111 12.5 7 11.2 100330 73
2004-05-03 07:08:15 51°12.252 2°48.082 13.5 8 11.2 100330 73
2004-05-03 07:08:20 51°12.241 2°48.054 13.5 8 11.2 100330 73
2004-05-03 07:08:25 51°12.231 2°48.025 13.6 8 11.2 100330 73
2004-05-03 07:08:30 51°12.22 2°47.996 13.3 8 11.2 100340 73
2004-05-03 07:08:34 51°12.212 2°47.973 14.1 9 11.2 100340 73
2004-05-03 07:08:40 51°12.199 2°47.939 13.4 10 11.2 100340 74
2004-05-03 07:08:45 51°12.189 2°47.91 13.4 9 11.2 100340 74
2004-05-03 07:08:50 51°12.178 2°47.881 13.4 6 11.2 100330 73
2004-05-03 07:08:54 51°12.169 2°47.858 13.3 7 11.2 100330 73
2004-05-03 07:09:00 51°12.157 2°47.824 13.1 6 11.3 100340 73
2004-05-03 07:09:05 51°12.146 2°47.796 12.7 6 11.3 100340 73
2004-05-03 07:09:10 51°12.135 2°47.767 13.5 9 11.3 100340 73
2004-05-03 07:09:15 51°12.125 2°47.738 12.6 7 11.3 100340 73
2004-05-03 07:09:20 51°12.115 2°47.709 13.2 5 11.3 100340 73
2004-05-03 07:09:25 51°12.104 2°47.68 12.3 5 11.3 100340 73
2004-05-03 07:09:30 51°12.094 2°47.652 12.5 7 11.3 100340 74
2004-05-03 07:09:34 51°12.086 2°47.629 12.6 13 11.3 100340 74
2004-05-03 07:09:40 51°12.073 2°47.594 12.6 9 11.3 100350 75
2004-05-03 07:09:45 51°12.062 2°47.566 14 10 11.3 100350 75
2004-05-03 07:09:50 51°12.052 2°47.537 13 9 11.4 100350 74
2004-05-03 07:09:54 51°12.043 2°47.514 14.4 9 11.4 100350 74
2004-05-03 07:10:00 51°12.031 2°47.48 15 10 11.4 100350 75
2004-05-03 07:10:05 51°12.02 2°47.451 15 4 11.4 100350 75
2004-05-03 07:10:10 51°12.01 2°47.422 13.6 10 11.4 100340 75
2004-05-03 07:10:15 51°11.999 2°47.394 14.3 5 11.4 100340 75
2004-05-03 07:10:20 51°11.989 2°47.365 13.8 10 11.4 100350 74
2004-05-03 07:10:25 51°11.978 2°47.336 14.6 10 11.4 100350 74
2004-05-03 07:10:30 51°11.968 2°47.307 15 10 11.4 100340 73
2004-05-03 07:10:36 51°11.956 2°47.273 14.6 8 11.4 100340 73
2004-05-03 07:10:40 51°11.947 2°47.25 15.7 6 11.4 100330 73
2004-05-03 07:10:45 51°11.937 2°47.221 14.3 6 11.4 100330 73
2004-05-03 07:10:50 51°11.926 2°47.193 14.3 9 11.4 100330 72
2004-05-03 07:10:56 51°11.914 2°47.158 14.5 8 11.4 100330 72
2004-05-03 07:11:00 51°11.906 2°47.135 14.5 10 11.4 100330 71
2004-05-03 07:11:05 51°11.895 2°47.106 14.5 10 11.4 100330 71
2004-05-03 07:11:10 51°11.885 2°47.078 15 8 11.5 100330 72
2004-05-03 07:11:15 51°11.874 2°47.049 14.2 9 11.5 100330 72
2004-05-03 07:11:20 51°11.864 2°47.02 13.8 8 11.5 100350 72
2004-05-03 07:11:25 51°11.854 2°46.991 14.5 7 11.5 100350 72
2004-05-03 07:11:29 51°11.845 2°46.968 13.8 8 11.5 100330 71
2004-05-03 07:11:36 51°11.831 2°46.928 13.8 9 11.5 100330 71
2004-05-03 07:11:40 51°11.822 2°46.905 14.3 10 11.5 100340 72
2004-05-03 07:11:45 51°11.811 2°46.876 15.2 10 11.5 100340 72
2004-05-03 07:11:50 51°11.801 2°46.848 15 7 11.5 100340 72
2004-05-03 07:11:56 51°11.788 2°46.813 14.8 6 11.5 100340 72
2004-05-03 07:12:00 51°11.78 2°46.79 14.7 6 11.5 100340 72
2004-05-03 07:12:05 51°11.769 2°46.762 14.7 7 11.5 100340 72
2004-05-03 07:12:10 51°11.759 2°46.733 15.5 7 11.5 100330 72
2004-05-03 07:12:16 51°11.746 2°46.699 14.9 6 11.5 100330 72
2004-05-03 07:12:20 51°11.738 2°46.676 15.4 7 11.5 100330 71
2004-05-03 07:12:25 51°11.728 2°46.647 14.7 8 11.5 100330 71
2004-05-03 07:12:30 51°11.717 2°46.619 15.3 6 11.5 100330 71
2004-05-03 07:12:34 51°11.709 2°46.596 14.6 6 11.5 100330 71
2004-05-03 07:12:41 51°11.694 2°46.556 14.7 6 11.5 100330 70
2004-05-03 07:12:45 51°11.686 2°46.533 14.4 5 11.5 100330 70
2004-05-03 07:12:50 51°11.676 2°46.505 14.1 3 11.5 100330 70
2004-05-03 07:12:55 51°11.666 2°46.476 14.1 6 11.5 100330 70
2004-05-03 07:13:00 51°11.655 2°46.448 14.1 6 11.5 100330 70
2004-05-03 07:13:05 51°11.645 2°46.42 14.3 4 11.5 100330 70
2004-05-03 07:13:10 51°11.634 2°46.391 14.2 5 11.5 100330 71
2004-05-03 07:13:14 51°11.626 2°46.368 13.9 6 11.5 100330 71
2004-05-03 07:13:20 51°11.613 2°46.335 14.2 6 11.5 100330 71
2004-05-03 07:13:25 51°11.603 2°46.306 14.6 8 11.5 100330 71
2004-05-03 07:13:30 51°11.592 2°46.278 13.5 11 11.5 100340 71
2004-05-03 07:13:35 51°11.582 2°46.25 13.9 6 11.5 100340 71
2004-05-03 07:13:40 51°11.571 2°46.222 13.2 7 11.6 100340 70
2004-05-03 07:13:45 51°11.561 2°46.193 13.7 5 11.6 100340 70
2004-05-03 07:13:50 51°11.55 2°46.165 14.4 6 11.5 100340 71
2004-05-03 07:13:55 51°11.54 2°46.137 14.2 5 11.5 100340 71
2004-05-03 07:14:00 51°11.53 2°46.108 13.5 11 11.6 100340 72
2004-05-03 07:14:05 51°11.519 2°46.08 13.1 6 11.6 100340 72
2004-05-03 07:14:10 51°11.509 2°46.051 12.9 6 11.6 100320 72
2004-05-03 07:14:15 51°11.499 2°46.023 13.1 7 11.6 100320 72
2004-05-03 07:14:20 51°11.488 2°45.994 13.5 6 11.6 100330 71
2004-05-03 07:14:25 51°11.478 2°45.966 13.8 5 11.6 100330 71
2004-05-03 07:14:30 51°11.468 2°45.937 13.4 7 11.6 100330 72
2004-05-03 07:14:33 51°11.461 2°45.92 14.3 7 11.6 100330 72
2004-05-03 07:14:40 51°11.447 2°45.88 14 6 11.6 100330 73
2004-05-03 07:14:45 51°11.436 2°45.852 14.1 5 11.6 100330 73
2004-05-03 07:14:50 51°11.426 2°45.823 12.9 6 11.6 100330 73
2004-05-03 07:14:55 51°11.416 2°45.794 13.9 5 11.6 100330 73
2004-05-03 07:15:01 51°11.404 2°45.76 14.3 6 11.6 100330 72
2004-05-03 07:15:05 51°11.396 2°45.737 14.4 8 11.6 100330 72
2004-05-03 07:15:10 51°11.385 2°45.709 14.3 8 11.6 100330 71
2004-05-03 07:15:16 51°11.373 2°45.675 13.8 7 11.6 100330 71
2004-05-03 07:15:20 51°11.364 2°45.652 14 7 11.6 100330 71
2004-05-03 07:15:25 51°11.354 2°45.623 13.7 8 11.6 100330 71
2004-05-03 07:15:30 51°11.344 2°45.595 14.1 7 11.6 100330 71
2004-05-03 07:15:36 51°11.331 2°45.561 13.8 10 11.6 100330 71
2004-05-03 07:15:40 51°11.323 2°45.538 13.5 7 11.6 100330 72
2004-05-03 07:15:45 51°11.313 2°45.51 13.8 6 11.6 100330 72
2004-05-03 07:15:50 51°11.303 2°45.481 13.8 5 11.6 100330 72
2004-05-03 07:15:54 51°11.294 2°45.459 13.7 9 11.6 100330 72
2004-05-03 07:16:00 51°11.282 2°45.425 14.5 7 11.6 100330 72
2004-05-03 07:16:05 51°11.272 2°45.396 14.2 5 11.6 100330 72
2004-05-03 07:16:10 51°11.262 2°45.368 13.8 7 11.5 100330 72
2004-05-03 07:16:14 51°11.253 2°45.345 13.4 8 11.5 100330 72
2004-05-03 07:16:20 51°11.241 2°45.31 13.7 6 11.6 100330 72
2004-05-03 07:16:25 51°11.232 2°45.281 13.3 5 11.6 100330 72
2004-05-03 07:16:30 51°11.222 2°45.252 13.7 3 11.6 100330 72
2004-05-03 07:16:36 51°11.212 2°45.216 13.9 5 11.6 100330 72
2004-05-03 07:16:40 51°11.205 2°45.193 13.4 7 11.6 100330 72
2004-05-03 07:16:45 51°11.196 2°45.162 13.7 8 11.6 100330 72
2004-05-03 07:16:50 51°11.188 2°45.133 13 6 11.6 100340 73
2004-05-03 07:16:54 51°11.181 2°45.108 13.7 10 11.6 100340 73
2004-05-03 07:17:00 51°11.171 2°45.072 13.7 9 11.5 100330 73
2004-05-03 07:17:05 51°11.163 2°45.042 14.3 7 11.5 100330 73
2004-05-03 07:17:10 51°11.154 2°45.013 13.8 8 11.6 100330 74
2004-05-03 07:17:15 51°11.145 2°44.983 14.1 8 11.6 100330 74
2004-05-03 07:17:21 51°11.135 2°44.947 13.4 10 11.6 100340 74
2004-05-03 07:17:25 51°11.127 2°44.923 13.9 5 11.6 100340 74
2004-05-03 07:17:30 51°11.118 2°44.893 14.2 6 11.6 100330 72
2004-05-03 07:17:36 51°11.108 2°44.857 14.2 6 11.6 100330 72
2004-05-03 07:17:40 51°11.101 2°44.834 14.1 5 11.6 100330 72
2004-05-03 07:17:45 51°11.092 2°44.804 13.8 6 11.6 100330 72
2004-05-03 07:17:50 51°11.084 2°44.774 14 5 11.6 100340 72
2004-05-03 07:17:56 51°11.073 2°44.738 13.4 4 11.6 100340 72
2004-05-03 07:18:00 51°11.067 2°44.714 13.1 7 11.6 100340 72
2004-05-03 07:18:05 51°11.058 2°44.684 14.3 5 11.6 100340 72
2004-05-03 07:18:10 51°11.049 2°44.654 13.9 5 11.6 100330 73
2004-05-03 07:18:16 51°11.039 2°44.619 14 6 11.6 100330 73
2004-05-03 07:18:20 51°11.032 2°44.595 14.4 5 11.6 100340 74
2004-05-03 07:18:25 51°11.023 2°44.565 13.2 8 11.6 100340 74
2004-05-03 07:18:30 51°11.014 2°44.535 13.8 9 11.6 100320 73
2004-05-03 07:18:35 51°11.005 2°44.506 14.6 6 11.6 100320 73
2004-05-03 07:18:40 51°10.996 2°44.476 13.7 6 11.6 100330 73
2004-05-03 07:18:45 51°10.987 2°44.447 13.6 6 11.6 100330 73
2004-05-03 07:18:50 51°10.978 2°44.417 14.4 5 11.6 100330 73
2004-05-03 07:18:53 51°10.973 2°44.399 14 5 11.6 100330 73
2004-05-03 07:19:00 51°10.961 2°44.357 13.1 6 11.6 100340 73
2004-05-03 07:19:05 51°10.953 2°44.327 13.9 5 11.6 100340 73
2004-05-03 07:19:10 51°10.944 2°44.297 13.8 5 11.6 100330 73
2004-05-03 07:19:15 51°10.936 2°44.267 14.3 3 11.6 100330 73
2004-05-03 07:19:20 51°10.928 2°44.238 13.9 8 11.6 100340 72
2004-05-03 07:19:25 51°10.919 2°44.208 13.8 4 11.6 100340 72
2004-05-03 07:19:30 51°10.911 2°44.178 14 7 11.5 100330 72
2004-05-03 07:19:35 51°10.902 2°44.148 14.2 4 11.5 100330 72
2004-05-03 07:19:40 51°10.893 2°44.119 13.4 4 11.5 100330 72
2004-05-03 07:19:45 51°10.884 2°44.09 14.1 8 11.5 100330 72
2004-05-03 07:19:50 51°10.875 2°44.06 13.9 7 11.5 100330 72
2004-05-03 07:19:54 51°10.868 2°44.036 13.5 8 11.5 100330 72
2004-05-03 07:20:00 51°10.857 2°44.001 13.2 3 11.5 100330 73
2004-05-03 07:20:05 51°10.849 2°43.971 13.5 6 11.5 100330 73
2004-05-03 07:20:10 51°10.841 2°43.941 13.9 5 11.5 100330 73
2004-05-03 07:20:14 51°10.834 2°43.917 13.6 4 11.5 100330 73
2004-05-03 07:20:20 51°10.824 2°43.881 13.1 3 11.6 100330 73
2004-05-03 07:20:25 51°10.816 2°43.851 13.8 3 11.6 100330 73
2004-05-03 07:20:30 51°10.808 2°43.822 13.6 5 11.6 100330 73
2004-05-03 07:20:34 51°10.801 2°43.798 13.2 5 11.6 100330 73
2004-05-03 07:20:40 51°10.791 2°43.763 13.8 3 11.6 100330 73
2004-05-03 07:20:45 51°10.782 2°43.733 13.4 5 11.6 100330 73
2004-05-03 07:20:50 51°10.773 2°43.704 13.3 1 11.6 100330 74
2004-05-03 07:20:56 51°10.762 2°43.669 12.7 4 11.6 100330 74
2004-05-03 07:21:00 51°10.755 2°43.646 13.4 6 11.6 100330 73
2004-05-03 07:21:05 51°10.746 2°43.616 12.7 3 11.6 100330 73
2004-05-03 07:21:10 51°10.737 2°43.587 13.6 4 11.6 100330 73
2004-05-03 07:21:14 51°10.731 2°43.563 13.1 3 11.6 100330 73
2004-05-03 07:21:21 51°10.719 2°43.521 13 3 11.6 100340 73
2004-05-03 07:21:25 51°10.713 2°43.497 12.6 1 11.6 100340 73
2004-05-03 07:21:29 51°10.706 2°43.474 13.1 2 11.6 100330 74
2004-05-03 07:21:34 51°10.698 2°43.444 13.3 4 11.6 100330 74
2004-05-03 07:21:40 51°10.687 2°43.408 13.5 4 11.6 100330 73
2004-05-03 07:21:45 51°10.679 2°43.379 13 3 11.6 100330 73
2004-05-03 07:21:50 51°10.669 2°43.35 12.9 5 11.6 100320 74
2004-05-03 07:21:55 51°10.66 2°43.32 13.7 2 11.6 100320 74
2004-05-03 07:22:00 51°10.651 2°43.292 13.3 5 11.6 100330 74
2004-05-03 07:22:05 51°10.642 2°43.262 13.1 4 11.6 100330 74
2004-05-03 07:22:10 51°10.632 2°43.233 13.1 3 11.6 100330 74
2004-05-03 07:22:14 51°10.625 2°43.21 13.4 2 11.6 100330 74
2004-05-03 07:22:21 51°10.613 2°43.169 13.3 2 11.6 100330 74
2004-05-03 07:22:25 51°10.605 2°43.146 13.2 3 11.6 100330 74
2004-05-03 07:22:30 51°10.597 2°43.116 13.3 1 11.6 100330 74
2004-05-03 07:22:34 51°10.591 2°43.092 13   11.6 100330 74
2004-05-03 07:22:40 51°10.581 2°43.056 12.4 3 11.6 100320 74
2004-05-03 07:22:45 51°10.573 2°43.026 12.6 2 11.6 100320 74
2004-05-03 07:22:50 51°10.565 2°42.997 12.4 358 11.6 100320 73
2004-05-03 07:22:56 51°10.555 2°42.961 12.1 3 11.6 100320 73
2004-05-03 07:23:00 51°10.549 2°42.937 13 2 11.6 100330 74
2004-05-03 07:23:05 51°10.54 2°42.908 12.8 2 11.6 100330 74
2004-05-03 07:23:09 51°10.533 2°42.884 13.8 3 11.6 100330 75
2004-05-03 07:23:15 51°10.522 2°42.85 13.6 4 11.6 100330 75
2004-05-03 07:23:20 51°10.513 2°42.821 13.7 4 11.7 100320 75
2004-05-03 07:23:25 51°10.503 2°42.792 13.5 3 11.7 100320 75
2004-05-03 07:23:30 51°10.494 2°42.763 13 2 11.7 100330 75
2004-05-03 07:23:36 51°10.483 2°42.728 13.3 5 11.7 100330 75
2004-05-03 07:23:40 51°10.476 2°42.705 12.5 2 11.6 100330 74
2004-05-03 07:23:45 51°10.467 2°42.676 12.6 3 11.6 100330 74
2004-05-03 07:23:50 51°10.459 2°42.646 13.3 5 11.6 100320 74
2004-05-03 07:23:56 51°10.449 2°42.611 14 2 11.6 100320 74
2004-05-03 07:24:00 51°10.442 2°42.587 12.7 3 11.7 100330 74
2004-05-03 07:24:05 51°10.434 2°42.558 13 2 11.7 100330 74
2004-05-03 07:24:10 51°10.427 2°42.528 13.3 360 11.7 100330 74
2004-05-03 07:24:16 51°10.417 2°42.492 13.2 2 11.7 100330 74
2004-05-03 07:24:20 51°10.41 2°42.468 12.7 2 11.6 100330 74
2004-05-03 07:24:25 51°10.402 2°42.439 13.1 2 11.6 100330 74
2004-05-03 07:24:30 51°10.393 2°42.41 13.3 2 11.7 100320 74
2004-05-03 07:24:35 51°10.384 2°42.381 13.2 3 11.7 100320 74
2004-05-03 07:24:40 51°10.374 2°42.352 13.2 1 11.6 100330 74
2004-05-03 07:24:45 51°10.365 2°42.324 13.4 2 11.6 100330 74
2004-05-03 07:24:50 51°10.356 2°42.295 13.2 2 11.7 100320 74
2004-05-03 07:24:55 51°10.347 2°42.266 13.6 2 11.7 100320 74
2004-05-03 07:25:00 51°10.338 2°42.237 13.2 1 11.7 100330 74
2004-05-03 07:25:05 51°10.33 2°42.207 13 3 11.7 100330 74
2004-05-03 07:25:10 51°10.322 2°42.177 13.3 2 11.7 100320 74
2004-05-03 07:25:16 51°10.311 2°42.142 13.1 1 11.7 100320 74
2004-05-03 07:25:20 51°10.305 2°42.118 13.2 1 11.7 100320 74
2004-05-03 07:25:25 51°10.297 2°42.089 12.9 2 11.7 100320 74
2004-05-03 07:25:30 51°10.289 2°42.059 13.9 3 11.7 100310 74
2004-05-03 07:25:35 51°10.281 2°42.03 13.7 2 11.7 100310 74
2004-05-03 07:25:40 51°10.272 2°42 13 2 11.7 100330 74
2004-05-03 07:25:45 51°10.263 2°41.971 13.1 3 11.7 100330 74
2004-05-03 07:25:50 51°10.254 2°41.943 12.6 4 11.7 100320 74
2004-05-03 07:25:56 51°10.242 2°41.909 12.2 4 11.7 100320 74
2004-05-03 07:26:00 51°10.235 2°41.886 13.4 4 11.7 100330 73
2004-05-03 07:26:05 51°10.225 2°41.858 12.5 3 11.7 100330 73
2004-05-03 07:26:10 51°10.216 2°41.829 12.7 3 11.7 100330 74
2004-05-03 07:26:14 51°10.208 2°41.806 12.1 1 11.7 100330 74
2004-05-03 07:26:20 51°10.197 2°41.772 12.9 359 11.7 100330 75
2004-05-03 07:26:25 51°10.189 2°41.742 11.7 2 11.7 100330 75
2004-05-03 07:26:30 51°10.181 2°41.713 12.4 2 11.7 100330 75
2004-05-03 07:26:36 51°10.172 2°41.677 12 2 11.7 100330 75
2004-05-03 07:26:40 51°10.166 2°41.653 12.5 357 11.7 100330 75
2004-05-03 07:26:45 51°10.159 2°41.624 12.7 357 11.7 100330 75
2004-05-03 07:26:50 51°10.152 2°41.594 12.7 359 11.7 100330 75
2004-05-03 07:26:54 51°10.145 2°41.57 13.1 359 11.7 100330 75
2004-05-03 07:27:01 51°10.134 2°41.528 12.4 3 11.8 100320 75
2004-05-03 07:27:05 51°10.128 2°41.505 13.1 2 11.8 100320 75
2004-05-03 07:27:10 51°10.119 2°41.476 12.8 1 11.8 100320 75
2004-05-03 07:27:15 51°10.11 2°41.448 12.7 3 11.8 100320 75
2004-05-03 07:27:20 51°10.1 2°41.42 12.2 4 11.8 100330 75
2004-05-03 07:27:25 51°10.091 2°41.391 12.5 3 11.8 100330 75
2004-05-03 07:27:29 51°10.083 2°41.368 12.5 2 11.8 100320 75
2004-05-03 07:27:36 51°10.071 2°41.328 12.8 1 11.8 100320 75
2004-05-03 07:27:40 51°10.064 2°41.305 12.8 1 11.8 100320 75
2004-05-03 07:27:45 51°10.056 2°41.276 12.5 1 11.8 100320 75
2004-05-03 07:27:50 51°10.048 2°41.246 12 360 11.8 100330 75
2004-05-03 07:27:54 51°10.042 2°41.222 12.9 358 11.8 100330 75
2004-05-03 07:28:00 51°10.033 2°41.187 12.9 359 11.8 100320 75
2004-05-03 07:28:05 51°10.025 2°41.157 12.6 360 11.8 100320 75
2004-05-03 07:28:10 51°10.018 2°41.127 12.7 1 11.8 100330 75
2004-05-03 07:28:15 51°10.01 2°41.098 13.2   11.8 100330 75
2004-05-03 07:28:20 51°10.001 2°41.069 12.7 2 11.8 100320 75
2004-05-03 07:28:25 51°9.992 2°41.04 12.5 3 11.8 100320 75
2004-05-03 07:28:30 51°9.983 2°41.011 12.6 4 11.8 100330 75
2004-05-03 07:28:34 51°9.975 2°40.989 12.8 2 11.8 100330 75
2004-05-03 07:28:40 51°9.964 2°40.954 12.2 3 11.8 100320 75
2004-05-03 07:28:45 51°9.955 2°40.926 12.5 2 11.8 100320 75
2004-05-03 07:28:50 51°9.946 2°40.898 12.5 2 11.8 100330 74
2004-05-03 07:28:56 51°9.935 2°40.863 13 2 11.8 100330 74
2004-05-03 07:29:00 51°9.928 2°40.84 12.1 1 11.8 100330 74
2004-05-03 07:29:05 51°9.921 2°40.81 12.3 359 11.8 100330 74
2004-05-03 07:29:10 51°9.914 2°40.779 12.1 359 11.8 100330 74
2004-05-03 07:29:15 51°9.907 2°40.749 12.3 1 11.8 100330 74
2004-05-03 07:29:20 51°9.902 2°40.719 12.4 359 11.8 100330 74
2004-05-03 07:29:25 51°9.896 2°40.688 12.2 358 11.8 100330 74
2004-05-03 07:29:30 51°9.89 2°40.657 13.4 357 11.8 100320 74
2004-05-03 07:29:36 51°9.883 2°40.62 12.8 2 11.8 100320 74
2004-05-03 07:29:40 51°9.879 2°40.596 12.5 358 11.9 100330 75
2004-05-03 07:29:45 51°9.872 2°40.566 12.8 359 11.9 100330 75
2004-05-03 07:29:50 51°9.866 2°40.536 12.6 2 11.9 100320 75
2004-05-03 07:29:55 51°9.859 2°40.505 12.3 1 11.9 100320 75
2004-05-03 07:30:00 51°9.852 2°40.475 12.2 359 11.9 100320 75
2004-05-03 07:30:05 51°9.844 2°40.445 12.4   11.9 100320 75
2004-05-03 07:30:10 51°9.837 2°40.415 12.7 359 11.9 100330 75
2004-05-03 07:30:15 51°9.831 2°40.385 12.8 358 11.9 100330 75
2004-05-03 07:30:20 51°9.824 2°40.355 12.7 358 11.9 100330 75
2004-05-03 07:30:25 51°9.818 2°40.324 12.4 358 11.9 100330 75
2004-05-03 07:30:30 51°9.811 2°40.293 12.7 359 11.9 100330 76
2004-05-03 07:30:34 51°9.807 2°40.269 12.7 1 11.9 100330 76
2004-05-03 07:30:40 51°9.8 2°40.232 12.9 359 11.9 100330 75
2004-05-03 07:30:45 51°9.793 2°40.202 13.1 3 11.9 100330 75
2004-05-03 07:30:50 51°9.787 2°40.171 12.7   11.9 100320 74
2004-05-03 07:30:55 51°9.78 2°40.141 13.3 3 11.9 100320 74
2004-05-03 07:31:00 51°9.774 2°40.11 13 4 11.9 100330 74
2004-05-03 07:31:05 51°9.767 2°40.08 13.1 2 11.9 100330 74
2004-05-03 07:31:10 51°9.759 2°40.05 12.6 3 11.9 100320 74
2004-05-03 07:31:16 51°9.751 2°40.014 13.2 1 11.9 100320 74
2004-05-03 07:31:20 51°9.745 2°39.99 13.1 2 11.9 100320 74
2004-05-03 07:31:25 51°9.739 2°39.96 13.1 359 11.9 100320 74
2004-05-03 07:31:30 51°9.732 2°39.93 12.3 359 11.9 100340 74
2004-05-03 07:31:35 51°9.726 2°39.899 11.9 360 11.9 100340 74
2004-05-03 07:31:40 51°9.72 2°39.869 12.6 360 11.9 100330 74
2004-05-03 07:31:45 51°9.714 2°39.838 12 1 11.9 100330 74
2004-05-03 07:31:50 51°9.708 2°39.808 13.1 359 11.9 100330 74
2004-05-03 07:31:56 51°9.701 2°39.771 13.5 1 11.9 100330 74
2004-05-03 07:32:00 51°9.695 2°39.747 12.7 3 12 100330 74
2004-05-03 07:32:05 51°9.689 2°39.717 13 358 12 100330 74
2004-05-03 07:32:10 51°9.682 2°39.687 13.1 1 12 100320 75
2004-05-03 07:32:15 51°9.675 2°39.657 13.5 1 12 100320 75
2004-05-03 07:32:20 51°9.667 2°39.627 13.4 2 12 100320 74
2004-05-03 07:32:26 51°9.659 2°39.591 13.3 3 12 100320 74
2004-05-03 07:32:30 51°9.654 2°39.567 13 1 12 100330 74
2004-05-03 07:32:35 51°9.647 2°39.537 13.8 1 12 100330 74
2004-05-03 07:32:40 51°9.641 2°39.506 13.1 2 12 100320 73
2004-05-03 07:32:45 51°9.634 2°39.476 13.1 2 12 100320 73
2004-05-03 07:32:50 51°9.628 2°39.445 12.9 1 12 100320 73
2004-05-03 07:32:54 51°9.623 2°39.421 12.9 360 12 100320 73
2004-05-03 07:33:00 51°9.616 2°39.384 12.7 360 12 100330 73
2004-05-03 07:33:05 51°9.61 2°39.354 12.8 359 12 100330 73
2004-05-03 07:33:09 51°9.605 2°39.329 12.3   12 100320 73
2004-05-03 07:33:14 51°9.598 2°39.299 12.3 1 12 100320 73
2004-05-03 07:33:20 51°9.59 2°39.263 13.1 3 12 100320 74
2004-05-03 07:33:25 51°9.583 2°39.233 13.6 2 12 100320 74
2004-05-03 07:33:30 51°9.576 2°39.203 13.1 360 12.1 100320 74
2004-05-03 07:33:36 51°9.567 2°39.167 13.9   12.1 100320 74
2004-05-03 07:33:40 51°9.562 2°39.143 13.5   12.1 100320 74
2004-05-03 07:33:45 51°9.555 2°39.112 13 6 12.1 100320 74
2004-05-03 07:33:50 51°9.549 2°39.082 13 3 12 100320 73
2004-05-03 07:33:55 51°9.543 2°39.051 13.4 4 12 100320 73
2004-05-03 07:34:01 51°9.535 2°39.015 12.7 3 12 100320 74
2004-05-03 07:34:05 51°9.53 2°38.991 13.2 2 12 100320 74
2004-05-03 07:34:10 51°9.523 2°38.96 12.5 3 12.1 100310 74
2004-05-03 07:34:16 51°9.515 2°38.924 13.3 4 12.1 100310 74
2004-05-03 07:34:20 51°9.51 2°38.899 12.5 3 12.1 100320 74
2004-05-03 07:34:25 51°9.503 2°38.869 12.8 2 12.1 100320 74
2004-05-03 07:34:30 51°9.496 2°38.839 13.1 3 12 100330 74
2004-05-03 07:34:35 51°9.489 2°38.809 13.2 3 12 100330 74
2004-05-03 07:34:40 51°9.483 2°38.778 13.5 3 12 100310 73
2004-05-03 07:34:45 51°9.476 2°38.748 13.3 2 12 100310 73
2004-05-03 07:34:50 51°9.47 2°38.717 13.4 5 12 100320 73
2004-05-03 07:34:53 51°9.466 2°38.699 13.4 1 12 100320 73
2004-05-03 07:35:00 51°9.457 2°38.656 13.3 1 12 100320 73
2004-05-03 07:35:05 51°9.45 2°38.626 13.6 1 12 100320 73
2004-05-03 07:35:10 51°9.444 2°38.596 13.1   12.1 100320 74
2004-05-03 07:35:14 51°9.438 2°38.572 12.7   12.1 100320 74
2004-05-03 07:35:20 51°9.43 2°38.536 13 359 12 100320 73
2004-05-03 07:35:25 51°9.423 2°38.505 13 359 12 100320 73
2004-05-03 07:35:30 51°9.416 2°38.475 12.5 1 12.1 100320 74
2004-05-03 07:35:34 51°9.411 2°38.451 12.8 2 12.1 100320 74
2004-05-03 07:35:40 51°9.403 2°38.414 13.3 4 12.1 100320 74
2004-05-03 07:35:45 51°9.397 2°38.384 13.3 1 12.1 100320 74
2004-05-03 07:35:50 51°9.391 2°38.353 13.1 2 12.1 100320 74
2004-05-03 07:35:54 51°9.385 2°38.329 12.8   12.1 100320 74
2004-05-03 07:36:00 51°9.378 2°38.292 13.1 2 12.1 100310 75
2004-05-03 07:36:05 51°9.371 2°38.262 13.4   12.1 100310 75
2004-05-03 07:36:09 51°9.366 2°38.238 13.7 1 12.1 100320 74
2004-05-03 07:36:14 51°9.36 2°38.208 13.2   12.1 100320 74
2004-05-03 07:36:20 51°9.351 2°38.171 12.7 2 12.1 100310 74
2004-05-03 07:36:25 51°9.345 2°38.141 12.6 2 12.1 100310 74
2004-05-03 07:36:30 51°9.339 2°38.111 12.8 3 12.1 100310 75
2004-05-03 07:36:33 51°9.335 2°38.093 12.6 1 12.1 100310 75
2004-05-03 07:36:40 51°9.326 2°38.05 13.6 1 12.1 100310 75
2004-05-03 07:36:45 51°9.319 2°38.02 12.8 2 12.1 100310 75
2004-05-03 07:36:50 51°9.312 2°37.99 12.5 1 12.1 100320 76
2004-05-03 07:36:56 51°9.304 2°37.954 12.8 359 12.1 100320 76
2004-05-03 07:37:00 51°9.299 2°37.93 13.7 359 12.1 100320 76
2004-05-03 07:37:05 51°9.293 2°37.9 13.3 358 12.1 100320 76
2004-05-03 07:37:10 51°9.286 2°37.87 12.1 359 12 100320 76
2004-05-03 07:37:16 51°9.278 2°37.834 13.1 1 12 100320 76
2004-05-03 07:37:20 51°9.273 2°37.81 13.5 1 12.1 100310 76
2004-05-03 07:37:25 51°9.266 2°37.78 13 359 12.1 100310 76
2004-05-03 07:37:30 51°9.26 2°37.75 12.9 359 12.1 100310 76
2004-05-03 07:37:35 51°9.254 2°37.719 13.5 357 12.1 100310 76
2004-05-03 07:37:40 51°9.248 2°37.689 13.2 357 12.1 100310 77
2004-05-03 07:37:45 51°9.242 2°37.658 12.9 357 12.1 100310 77
2004-05-03 07:37:50 51°9.236 2°37.628 12.7 359 12 100310 76
2004-05-03 07:37:55 51°9.23 2°37.598 12.6 1 12 100310 76
2004-05-03 07:38:00 51°9.224 2°37.567 13 360 12 100310 75
2004-05-03 07:38:05 51°9.217 2°37.537 13.1 360 12 100310 75
2004-05-03 07:38:10 51°9.21 2°37.508 12.6 357 12.1 100300 76
2004-05-03 07:38:14 51°9.205 2°37.484 12.2 360 12.1 100300 76
2004-05-03 07:38:20 51°9.197 2°37.449 12.6 1 12.1 100310 76
2004-05-03 07:38:25 51°9.19 2°37.421 11.5 1 12.1 100310 76
2004-05-03 07:38:30 51°9.183 2°37.395 11.4 4 12 100310 76
2004-05-03 07:38:36 51°9.173 2°37.366 10.8 7 12 100310 76
2004-05-03 07:38:40 51°9.166 2°37.349 11.2 10 12.1 100310 77
2004-05-03 07:38:45 51°9.157 2°37.329 10.9 13 12.1 100310 77
2004-05-03 07:38:50 51°9.148 2°37.312 10.5 15 12.1 100320 77
2004-05-03 07:38:56 51°9.137 2°37.294 10.3 17 12.1 100320 77
2004-05-03 07:39:00 51°9.129 2°37.283 10.2 19 12.1 100320 77
2004-05-03 07:39:05 51°9.119 2°37.27 10.1 22 12.1 100320 77
2004-05-03 07:39:10 51°9.11 2°37.259 9.9 23 12 100330 77
2004-05-03 07:39:15 51°9.101 2°37.249 8.8 23 12 100330 77
2004-05-03 07:39:20 51°9.093 2°37.239 8.8 28 12 100330 76
2004-05-03 07:39:25 51°9.084 2°37.232 8.5 32 12 100330 76
2004-05-03 07:39:30 51°9.077 2°37.226 8.4 30 12 100330 76
2004-05-03 07:39:35 51°9.07 2°37.22 8.2 29 12 100330 76
2004-05-03 07:39:40 51°9.064 2°37.214 7.4 28 12 100330 76
2004-05-03 07:39:45 51°9.058 2°37.208 7.2 24 12 100330 76
2004-05-03 07:39:50 51°9.054 2°37.202 7.1 18 11.9 100330 76
2004-05-03 07:39:54 51°9.051 2°37.197 6.7 14 11.9 100330 76
2004-05-03 07:40:00 51°9.047 2°37.191 6.3 19 12 100330 76
2004-05-03 07:40:05 51°9.045 2°37.186 6.3 8 12 100330 76
2004-05-03 07:40:09 51°9.043 2°37.182 6.3 5 12 100330 77
2004-05-03 07:40:16 51°9.041 2°37.177 6 359 12 100330 77
2004-05-03 07:40:20 51°9.039 2°37.174 5.4 355 12 100340 77
2004-05-03 07:40:25 51°9.038 2°37.172 5.2 358 12 100340 77
2004-05-03 07:40:30 51°9.037 2°37.17 5.7 352 12 100340 77
2004-05-03 07:40:35 51°9.037 2°37.169 5.8 347 12 100340 77
2004-05-03 07:40:40 51°9.036 2°37.168 5.4 341 12 100340 77
2004-05-03 07:40:45 51°9.035 2°37.168 5.4 350 12 100340 77
2004-05-03 07:40:50 51°9.035 2°37.169 4.9 342 12 100340 77
2004-05-03 07:40:55 51°9.035 2°37.17 5 339 12 100340 77
2004-05-03 07:41:00 51°9.034 2°37.171 4.4 334 12 100340 77
2004-05-03 07:41:06 51°9.034 2°37.172 4.9 338 12 100340 77
2004-05-03 07:41:10 51°9.033 2°37.173 4.9 339 12 100340 77
2004-05-03 07:41:16 51°9.033 2°37.173 5 327 12 100340 77
2004-05-03 07:41:21 51°9.033 2°37.171 5.5 327 12 100340 77
2004-05-03 07:41:26 51°9.032 2°37.168 5.9 319 12 100340 77
2004-05-03 07:41:30 51°9.033 2°37.164 5.8 323 12 100340 77
2004-05-03 07:41:36 51°9.033 2°37.158 6.2 314 12 100340 77
2004-05-03 07:41:41 51°9.035 2°37.151 7.1 311 12.1 100340 78
2004-05-03 07:41:46 51°9.037 2°37.145 7.2 303 12.1 100340 78
2004-05-03 07:41:50 51°9.04 2°37.14 7 297 12.1 100340 78
2004-05-03 07:41:55 51°9.044 2°37.134 6.6 289 12.1 100340 78
2004-05-03 07:42:00 51°9.048 2°37.129 5.8 285 12.1 100330 78
2004-05-03 07:42:05 51°9.054 2°37.125 6.4 274 12.1 100330 78
2004-05-03 07:42:10 51°9.06 2°37.122 5.8 263 12.1 100330 77
2004-05-03 07:42:15 51°9.066 2°37.121 5 259 12.1 100330 77
2004-05-03 07:42:20 51°9.072 2°37.121 3.3 258 12 100340 76
2004-05-03 07:42:25 51°9.079 2°37.123 3.8 248 12 100340 76
2004-05-03 07:42:30 51°9.085 2°37.127 3.5 233 12.1 100340 77
2004-05-03 07:42:35 51°9.09 2°37.132 2.9 211 12.1 100340 77
2004-05-03 07:42:40 51°9.096 2°37.139 2.4 198 12 100340 77
2004-05-03 07:42:45 51°9.1 2°37.147 1.5 187 12 100340 77
2004-05-03 07:42:50 51°9.104 2°37.156 1.8 120 12 100340 77
2004-05-03 07:42:54 51°9.106 2°37.164 2.6 116 12 100340 77
2004-05-03 07:43:01 51°9.108 2°37.179 3 133 12 100350 77
2004-05-03 07:43:05 51°9.108 2°37.188 3.8 141 12 100350 77
2004-05-03 07:43:10 51°9.109 2°37.198 3.4 136 12 100340 77
2004-05-03 07:43:14 51°9.109 2°37.206 4.1 139 12 100340 77
2004-05-03 07:43:21 51°9.108 2°37.219 4 136 12.1 100340 78
2004-05-03 07:43:25 51°9.108 2°37.226 4.1 138 12.1 100340 78
2004-05-03 07:43:30 51°9.107 2°37.234 4.2 135 12.1 100340 77
2004-05-03 07:43:34 51°9.107 2°37.24 4.2 136 12.1 100340 77
2004-05-03 07:43:40 51°9.106 2°37.247 4.4 142 12.1 100340 77
2004-05-03 07:43:45 51°9.105 2°37.251 4.1 141 12.1 100340 77
2004-05-03 07:43:50 51°9.104 2°37.253 5.2 147 12.1 100340 76
2004-05-03 07:43:55 51°9.104 2°37.254 5.5 142 12.1 100340 76
2004-05-03 07:44:00 51°9.103 2°37.255 5 141 12.1 100340 76
2004-05-03 07:44:05 51°9.102 2°37.254 6.1 139 12.1 100340 76
2004-05-03 07:44:10 51°9.102 2°37.254 5.3 136 12.1 100340 77
2004-05-03 07:44:14 51°9.101 2°37.254 6.2 134 12.1 100340 77
2004-05-03 07:44:20 51°9.101 2°37.254 6.3 131 12.1 100340 77
2004-05-03 07:44:25 51°9.1 2°37.254 6.2 130 12.1 100340 77
2004-05-03 07:44:30 51°9.099 2°37.253 6.3 126 12.1 100330 77
2004-05-03 07:44:33 51°9.099 2°37.253 5.6 126 12.1 100330 77
2004-05-03 07:44:40 51°9.098 2°37.253 5.5 120 12.1 100330 77
2004-05-03 07:44:45 51°9.098 2°37.253 5.9 123 12.1 100330 77
2004-05-03 07:44:50 51°9.097 2°37.253 5.6 123 12.1 100330 77
2004-05-03 07:44:54 51°9.097 2°37.253 5.7 123 12.1 100330 77
2004-05-03 07:45:00 51°9.096 2°37.252 5.6 123 12.1 100340 76
2004-05-03 07:45:05 51°9.096 2°37.252 5.6 124 12.1 100340 76
2004-05-03 07:45:10 51°9.095 2°37.252 5.3 124 12 100330 76
2004-05-03 07:45:15 51°9.095 2°37.252 5.3 127 12 100330 76
2004-05-03 07:45:20 51°9.095 2°37.252 5.7 127 12.1 100330 76
2004-05-03 07:45:25 51°9.094 2°37.252 6.1 123 12.1 100330 76
2004-05-03 07:45:30 51°9.093 2°37.252 5.9 121 12.1 100340 77
2004-05-03 07:45:36 51°9.093 2°37.252 5.7 117 12.1 100340 77
2004-05-03 07:45:40 51°9.093 2°37.252 6.2 121 12 100340 77
2004-05-03 07:45:45 51°9.092 2°37.252 5.8 121 12 100340 77
2004-05-03 07:45:50 51°9.091 2°37.252 5.6 119 12 100330 77
2004-05-03 07:45:55 51°9.091 2°37.252 5.7 118 12 100330 77
2004-05-03 07:46:00 51°9.09 2°37.252 5.8 117 12 100330 76
2004-05-03 07:46:05 51°9.09 2°37.253 5.7 118 12 100330 76
2004-05-03 07:46:10 51°9.089 2°37.253 6 116 12 100330 76
2004-05-03 07:46:14 51°9.089 2°37.253 5.8 116 12 100330 76
2004-05-03 07:46:21 51°9.088 2°37.253 5.5 114 12 100330 75
2004-05-03 07:46:25 51°9.087 2°37.253 5.4 115 12 100330 75
2004-05-03 07:46:30 51°9.087 2°37.253 5.3 115 12 100330 75
2004-05-03 07:46:35 51°9.086 2°37.253 5.6 106 12 100330 75
2004-05-03 07:46:40 51°9.085 2°37.253 5.5 111 12 100330 76
2004-05-03 07:46:45 51°9.085 2°37.253 5.6 108 12 100330 76
2004-05-03 07:46:50 51°9.084 2°37.253 5.6 109 12 100330 76
2004-05-03 07:46:54 51°9.083 2°37.253 5.4 109 12 100330 76
2004-05-03 07:47:00 51°9.083 2°37.253 5.7 108 12 100330 76
2004-05-03 07:47:05 51°9.082 2°37.253 5.4 107 12 100330 76
2004-05-03 07:47:10 51°9.081 2°37.254 5.7 105 12 100330 76
2004-05-03 07:47:15 51°9.081 2°37.254 5.2 107 12 100330 76
2004-05-03 07:47:20 51°9.08 2°37.254 5.3 103 12 100330 75
2004-05-03 07:47:25 51°9.079 2°37.254 5.6 104 12 100330 75
2004-05-03 07:47:30 51°9.079 2°37.254 5.4 104 12 100330 75
2004-05-03 07:47:34 51°9.078 2°37.254 5.6 103 12 100330 75
2004-05-03 07:47:40 51°9.077 2°37.254 5.8 101 12 100330 75
2004-05-03 07:47:45 51°9.076 2°37.254 5.5 100 12 100330 75
2004-05-03 07:47:50 51°9.076 2°37.254 5.8 99 12 100330 75
2004-05-03 07:47:55 51°9.075 2°37.254 5.7 100 12 100330 75
2004-05-03 07:48:00 51°9.074 2°37.254 5.7 99 12 100330 75
2004-05-03 07:48:05 51°9.073 2°37.254 5.3 100 12 100330 75
2004-05-03 07:48:10 51°9.073 2°37.254 5.4 97 12 100330 76
2004-05-03 07:48:15 51°9.072 2°37.254 5.2 93 12 100330 76
2004-05-03 07:48:20 51°9.071 2°37.254 5.5 97 12 100330 76
2004-05-03 07:48:25 51°9.071 2°37.254 5.4 100 12 100330 76
2004-05-03 07:48:30 51°9.07 2°37.254 5.2 100 12 100330 76
2004-05-03 07:48:34 51°9.069 2°37.254 5.3 98 12 100330 76
2004-05-03 07:48:40 51°9.069 2°37.254 5.3 99 12 100330 76
2004-05-03 07:48:45 51°9.068 2°37.254 4.9 101 12 100330 76
2004-05-03 07:48:50 51°9.067 2°37.254 5.1 99 12 100330 76
2004-05-03 07:48:55 51°9.066 2°37.254 5.3 97 12 100330 76
2004-05-03 07:49:00 51°9.066 2°37.254 4.7 96 12 100330 76
2004-05-03 07:49:05 51°9.065 2°37.254 5 97 12 100330 76
2004-05-03 07:49:10 51°9.064 2°37.254 4.7 96 12 100330 77
2004-05-03 07:49:16 51°9.063 2°37.254 5.4 100 12 100330 77
2004-05-03 07:49:20 51°9.063 2°37.254 5.8 102 12.1 100330 78
2004-05-03 07:49:25 51°9.062 2°37.254 5.4 95 12.1 100330 78
2004-05-03 07:49:30 51°9.061 2°37.254 5.3 98 12.1 100330 78
2004-05-03 07:49:35 51°9.06 2°37.254 5.3 99 12.1 100330 78
2004-05-03 07:49:40 51°9.059 2°37.254 5 95 12.1 100330 78
2004-05-03 07:49:45 51°9.059 2°37.254 5.7 94 12.1 100330 78
2004-05-03 07:49:50 51°9.058 2°37.254 5.6 94 12 100330 78
2004-05-03 07:49:55 51°9.057 2°37.254 5.3 92 12 100330 78
2004-05-03 07:50:00 51°9.056 2°37.254 5.1 92 12 100330 78
2004-05-03 07:50:05 51°9.055 2°37.254 5.4 97 12 100330 78
2004-05-03 07:50:10 51°9.055 2°37.254 5.7 95 12 100330 78
2004-05-03 07:50:15 51°9.054 2°37.254 5.1 95 12 100330 78
2004-05-03 07:50:21 51°9.053 2°37.254 4.9 94 12 100330 78
2004-05-03 07:50:25 51°9.052 2°37.254 5 101 12 100330 78
2004-05-03 07:50:30 51°9.051 2°37.254 4.7 102 12 100330 77
2004-05-03 07:50:34 51°9.051 2°37.254 4.7 95 12 100330 77
2004-05-03 07:50:40 51°9.05 2°37.254 5.1 93 12 100330 77
2004-05-03 07:50:45 51°9.049 2°37.254 6.1 89 12 100330 77
2004-05-03 07:50:50 51°9.048 2°37.254 5.9 86 12 100330 78
2004-05-03 07:50:55 51°9.047 2°37.254 5.6 87 12 100330 78
2004-05-03 07:51:00 51°9.047 2°37.254 5.5 91 12 100330 78
2004-05-03 07:51:05 51°9.046 2°37.254 5.1 96 12 100330 78
2004-05-03 07:51:10 51°9.045 2°37.254 4.9 93 12 100330 78
2004-05-03 07:51:15 51°9.044 2°37.254 5.2 94 12 100330 78
2004-05-03 07:51:20 51°9.043 2°37.254 5.3 93 12 100330 78
2004-05-03 07:51:25 51°9.042 2°37.254 5.8 93 12 100330 78
2004-05-03 07:51:30 51°9.042 2°37.254 5.1 95 12 100330 78
2004-05-03 07:51:34 51°9.041 2°37.254 5.6 87 12 100330 78
2004-05-03 07:51:40 51°9.04 2°37.254 5.7 87 12 100330 78
2004-05-03 07:51:45 51°9.039 2°37.254 5.3 93 12 100330 78
2004-05-03 07:51:50 51°9.039 2°37.254 5.4 92 12 100330 78
2004-05-03 07:51:54 51°9.038 2°37.254 5.2 94 12 100330 78
2004-05-03 07:52:00 51°9.037 2°37.255 5.5 94 12.1 100330 78
2004-05-03 07:52:05 51°9.036 2°37.255 5.1 97 12.1 100330 78
2004-05-03 07:52:10 51°9.035 2°37.255 4.8 101 12.1 100330 78
2004-05-03 07:52:16 51°9.034 2°37.255 4.8 92 12.1 100330 78
2004-05-03 07:52:20 51°9.034 2°37.255 5 89 12 100330 78
2004-05-03 07:52:25 51°9.033 2°37.255 5.2 90 12 100330 78
2004-05-03 07:52:30 51°9.032 2°37.255 5.3 89 12 100330 78
2004-05-03 07:52:35 51°9.031 2°37.255 5.5 88 12 100330 78
2004-05-03 07:52:40 51°9.03 2°37.255 5.5 85 12 100330 78
2004-05-03 07:52:45 51°9.03 2°37.255 5 96 12 100330 78
2004-05-03 07:52:50 51°9.029 2°37.255 5.1 90 12 100330 78
2004-05-03 07:52:54 51°9.028 2°37.255 5.2 83 12 100330 78
2004-05-03 07:53:00 51°9.027 2°37.255 5.7 85 12 100330 78
2004-05-03 07:53:05 51°9.026 2°37.256 5.3 88 12 100330 78
2004-05-03 07:53:10 51°9.025 2°37.256 5.4 88 12 100330 78
2004-05-03 07:53:14 51°9.024 2°37.256 5.5 87 12 100330 78
2004-05-03 07:53:20 51°9.023 2°37.256 5.3 84 12 100330 78
2004-05-03 07:53:25 51°9.023 2°37.256 5.2 89 12 100330 78
2004-05-03 07:53:30 51°9.022 2°37.256 5.4 88 12 100330 78
2004-05-03 07:53:35 51°9.021 2°37.256 5.7 85 12 100330 78
2004-05-03 07:53:40 51°9.02 2°37.256 5.1 85 12 100330 79
2004-05-03 07:53:45 51°9.019 2°37.256 5 86 12 100330 79
2004-05-03 07:53:50 51°9.018 2°37.256 4.8 83 12 100330 79
2004-05-03 07:53:54 51°9.017 2°37.256 5 83 12 100330 79
2004-05-03 07:54:00 51°9.016 2°37.256 5 88 12 100330 79
2004-05-03 07:54:05 51°9.016 2°37.255 5.7 86 12 100330 79
2004-05-03 07:54:10 51°9.015 2°37.255 4.2 79 12 100330 78
2004-05-03 07:54:15 51°9.014 2°37.255 5.2 81 12 100330 78
2004-05-03 07:54:20 51°9.013 2°37.255 5.3 81 12 100330 78
2004-05-03 07:54:25 51°9.012 2°37.255 5 80 12 100330 78
2004-05-03 07:54:29 51°9.011 2°37.255 4.6 80 12 100330 78
2004-05-03 07:54:35 51°9.01 2°37.255 4.9 78 12 100330 78
2004-05-03 07:54:40 51°9.009 2°37.255 5.4 82 12 100330 78
2004-05-03 07:54:45 51°9.009 2°37.255 5.4 82 12 100330 78
2004-05-03 07:54:50 51°9.008 2°37.255 4.7 82 12 100330 78
2004-05-03 07:54:55 51°9.007 2°37.255 5 82 12 100330 78
2004-05-03 07:55:00 51°9.006 2°37.255 4.4 82 12 100330 77
2004-05-03 07:55:05 51°9.005 2°37.255 3.8 78 12 100330 77
2004-05-03 07:55:10 51°9.004 2°37.255 3.7 74 12 100330 77
2004-05-03 07:55:14 51°9.003 2°37.255 4.5 81 12 100330 77
2004-05-03 07:55:20 51°9.003 2°37.255 4.3 85 12 100330 78
2004-05-03 07:55:25 51°9.002 2°37.254 4.2 75 12 100330 78
2004-05-03 07:55:30 51°9.001 2°37.254 3.6 77 12 100330 78
2004-05-03 07:55:35 51°9 2°37.254 4.4 82 12 100330 78
2004-05-03 07:55:40 51°8.999 2°37.254 5.2 81 12 100330 78
2004-05-03 07:55:45 51°8.998 2°37.254 5.6 83 12 100330 78
2004-05-03 07:55:50 51°8.997 2°37.254 5.2 82 12 100330 79
2004-05-03 07:55:56 51°8.996 2°37.254 4.6 78 12 100330 79
2004-05-03 07:56:00 51°8.995 2°37.254 4.1 78 12 100330 79
2004-05-03 07:56:05 51°8.994 2°37.253 4.8 78 12 100330 79
2004-05-03 07:56:10 51°8.993 2°37.253 5.4 81 12 100330 79
2004-05-03 07:56:14 51°8.993 2°37.253 5.1 79 12 100330 79
2004-05-03 07:56:20 51°8.992 2°37.253 5.2 78 12 100330 78
2004-05-03 07:56:25 51°8.991 2°37.253 4.4 79 12 100330 78
2004-05-03 07:56:30 51°8.99 2°37.253 5.9 84 12.1 100330 79
2004-05-03 07:56:35 51°8.989 2°37.253 4.8 79 12.1 100330 79
2004-05-03 07:56:40 51°8.988 2°37.253 5.1 81 12 100330 78
2004-05-03 07:56:45 51°8.987 2°37.253 4.9 73 12 100330 78
2004-05-03 07:56:50 51°8.987 2°37.253 4.9 71 12 100330 78
2004-05-03 07:56:55 51°8.986 2°37.253 4.8 68 12 100330 78
2004-05-03 07:57:00 51°8.985 2°37.253 4.9 78 12 100330 78
2004-05-03 07:57:05 51°8.984 2°37.253 4.4 79 12 100330 78
2004-05-03 07:57:10 51°8.983 2°37.253 4.3 74 12 100330 77
2004-05-03 07:57:14 51°8.982 2°37.254 4.7 80 12 100330 77
2004-05-03 07:57:20 51°8.981 2°37.254 4.5 80 12 100330 77
2004-05-03 07:57:25 51°8.981 2°37.254 4.3 79 12 100330 77
2004-05-03 07:57:30 51°8.98 2°37.254 5.1 75 12 100330 78
2004-05-03 07:57:34 51°8.979 2°37.254 4.9 72 12 100330 78
2004-05-03 07:57:41 51°8.978 2°37.254 5.2 68 12 100330 78
2004-05-03 07:57:45 51°8.977 2°37.254 4.6 72 12 100330 78
2004-05-03 07:57:50 51°8.976 2°37.254 4.7 73 12.1 100330 79
2004-05-03 07:57:55 51°8.975 2°37.254 4.7 74 12.1 100330 79
2004-05-03 07:58:00 51°8.974 2°37.254 4.2 72 12.1 100330 79
2004-05-03 07:58:05 51°8.974 2°37.254 4.5 79 12.1 100330 79
2004-05-03 07:58:10 51°8.973 2°37.254 4.9 80 12 100330 78
2004-05-03 07:58:16 51°8.971 2°37.254 4.8 77 12 100330 78
2004-05-03 07:58:20 51°8.97 2°37.253 4.7 79 12.1 100330 78
2004-05-03 07:58:25 51°8.969 2°37.253 5.2 75 12.1 100330 78
2004-05-03 07:58:30 51°8.967 2°37.253 5.1 72 12.1 100330 79
2004-05-03 07:58:34 51°8.966 2°37.253 5.2 67 12.1 100330 79
2004-05-03 07:58:40 51°8.964 2°37.253 5.5 63 12.1 100330 79
2004-05-03 07:58:45 51°8.962 2°37.253 5.6 61 12.1 100330 79
2004-05-03 07:58:50 51°8.96 2°37.253 5.5 59 12.1 100330 78
2004-05-03 07:58:55 51°8.958 2°37.252 5.7 57 12.1 100330 78
2004-05-03 07:59:00 51°8.956 2°37.251 5.7 57 12.1 100330 78
2004-05-03 07:59:05 51°8.954 2°37.251 5.4 53 12.1 100330 78
2004-05-03 07:59:10 51°8.951 2°37.25 5.7 54 12 100330 78
2004-05-03 07:59:14 51°8.95 2°37.249 5.5 49 12 100330 78
2004-05-03 07:59:20 51°8.947 2°37.248 5.6 47 12 100330 78
2004-05-03 07:59:25 51°8.945 2°37.247 5.7 45 12 100330 78
2004-05-03 07:59:29 51°8.943 2°37.245 5.5 41 12 100330 77
2004-05-03 07:59:34 51°8.94 2°37.244 5.6 36 12 100330 77
2004-05-03 07:59:40 51°8.938 2°37.242 5.5 37 12 100330 77
2004-05-03 07:59:45 51°8.935 2°37.24 5.2 34 12 100330 77
2004-05-03 07:59:50 51°8.933 2°37.238 5.7 28 12 100320 77
2004-05-03 07:59:55 51°8.93 2°37.235 5.6 25 12 100320 77
2004-05-03 08:00:00 51°8.928 2°37.232 5.9 23 12 100330 78
2004-05-03 08:00:05 51°8.925 2°37.229 5.7 20 12 100330 78
2004-05-03 08:00:10 51°8.923 2°37.226 5.8 21 12.1 100330 78
2004-05-03 08:00:14 51°8.921 2°37.223 6.5 13 12.1 100330 78
2004-05-03 08:00:20 51°8.919 2°37.218 6.4 10 12.1 100320 79
2004-05-03 08:00:24 51°8.917 2°37.214 6.4 10 12.1 100320 79
2004-05-03 08:00:30 51°8.915 2°37.209 6.6 5 12.1 100330 79
2004-05-03 08:00:34 51°8.913 2°37.205 6.4 360 12.1 100330 79